Temp
-18 -18 -18 -18 -18 -18 -18 -18 -18 -18 -18 -18 -18 -19 -18 -18 -17 -17 -17 -17 -17 -18 -17 -17 -17 -17 -17 -16 -16 -16 -16 -16 -15 -15 -15 -16 -15 -16
-19 -19 -19 -19 -19 -19 -19 -19 -19 -18 -18 -19 -19 -19 -19 -19 -19 -18 -19 -18 -18 -18 -19 -19 -19 -18 -18 -18 -17 -17 -17 -16 -16 -16 -16 -16 -16 -16
-20 -20 -20 -20 -20 -20 -20 -19 -19 -19 -19 -19 -19 -19 -19 -19 -20 -19 -19 -19 -19 -19 -19 -19 -20 -20 -20 -19 -19 -19 -18 -18 -18 -17 -18 -17 -17 -17
-21 -21 -21 -21 -20 -20 -20 -20 -20 -20 -19 -19 -19 -19 -19 -19 -19 -20 -20 -19 -19 -20 -20 -20 -20 -20 -20 -20 -20 -20 -20 -20 -20 -20 -19 -19 -19 -19
-21 -21 -21 -21 -21 -21 -20 -20 -20 -20 -20 -19 -19 -19 -19 -20 -20 -19 -20 -20 -20 -20 -20 -20 -20 -20 -20 -21 -21 -21 -21 -21 -20 -20 -20 -20 -20 -20
-22 -22 -21 -21 -21 -21 -21 -21 -21 -21 -20 -20 -20 -20 -20 -20 -20 -20 -20 -20 -21 -21 -21 -21 -21 -21 -21 -21 -21 -21 -21 -21 -21 -21 -21 -21 -21 -20
-22 -22 -22 -22 -21 -21 -21 -21 -21 -21 -21 -21 -21 -21 -20 -20 -21 -21 -21 -21 -21 -21 -21 -22 -21 -22 -22 -22 -22 -22 -22 -21 -21 -21 -21 -21 -21 -21
-22 -22 -22 -22 -22 -22 -22 -22 -22 -22 -21 -21 -21 -21 -21 -21 -21 -22 -22 -22 -22 -22 -22 -22 -22 -22 -22 -22 -23 -22 -22 -22 -22 -22 -22 -22 -22 -22
-23 -23 -22 -22 -22 -22 -22 -22 -22 -22 -22 -22 -22 -22 -22 -22 -22 -23 -23 -23 -22 -23 -23 -23 -23 -23 -23 -23 -23 -23 -23 -23 -23 -23 -23 -23 -23 -23
-23 -23 -23 -23 -23 -23 -23 -23 -23 -23 -23 -23 -23 -23 -23 -23 -23 -24 -24 -24 -23 -24 -24 -24 -24 -24 -25 -25 -25 -26 -27 -27 -27 -27 -27 -27 -27 -27
-24 -24 -24 -24 -24 -25 -24 -24 -24 -24 -25 -25 -25 -24 -24 -25 -25 -25 -25 -25 -25 -25 -26 -26 -26 -26 -27 -27 -28 -30 -31 -31 -31 -31 -31 -31 -31 -30
-25 -25 -25 -25 -25 -25 -25 -26 -25 -26 -26 -26 -26 -26 -26 -26 -26 -27 -27 -27 -28 -28 -29 -29 -30 -30 -30 -31 -31 -32 -32 -32 -32 -32 -32 -32 -32 -31
-26 -26 -27 -27 -27 -26 -26 -26 -27 -27 -27 -27 -27 -27 -28 -28 -29 -30 -30 -31 -31 -31 -32 -32 -32 -33 -33 -32 -33 -33 -33 -33 -33 -33 -33 -33 -33 -33
-27 -27 -28 -28 -29 -29 -29 -28 -28 -29 -29 -29 -30 -30 -31 -31 -32 -33 -33 -33 -34 -33 -34 -34 -34 -34 -34 -34 -34 -34 -33 -33 -33 -33 -33 -34 -34 -34
-29 -28 -29 -29 -29 -29 -29 -30 -31 -31 -32 -32 -32 -33 -33 -33 -33 -34 -35 -35 -35 -35 -35 -35 -35 -35 -35 -35 -34 -34 -35 -35 -35 -35 -35 -35 -35 -35
-29 -30 -30 -30 -30 -31 -32 -33 -34 -35 -35 -35 -35 -34 -35 -35 -35 -35 -35 -36 -36 -36 -36 -36 -36 -36 -36 -36 -36 -35 -35 -35 -36 -36 -36 -36 -36 -36
-31 -32 -32 -33 -33 -34 -35 -36 -36 -37 -36 -36 -36 -36 -36 -36 -36 -36 -36 -36 -36 -36 -36 -36 -37 -37 -37 -37 -36 -36 -37 -37 -37 -37 -37 -36 -36 -37
-34 -34 -34 -35 -36 -37 -37 -38 -38 -38 -38 -37 -37 -37 -37 -37 -37 -37 -37 -37 -37 -37 -37 -37 -38 -38 -37 -37 -38 -38 -38 -37 -37 -38 -38 -37 -37 -37
-36 -35 -35 -36 -37 -38 -39 -39 -38 -38 -38 -38 -38 -38 -38 -38 -38 -38 -38 -38 -38 -38 -38 -38 -38 -38 -38 -37 -38 -40 -38 -38 -38 -38 -38 -38 -37 -37
-37 -37 -38 -38 -39 -40 -40 -40 -40 -40 -40 -40 -40 -39 -39 -39 -39 -39 -39 -39 -39 -38 -38 -39 -39 -39 -39 -38 -37 -38 -40 -39 -39 -38 -38 -38 -38 -37
-39 -40 -41 -41 -40 -40 -41 -40 -40 -40 -40 -40 -40 -40 -40 -40 -39 -39 -39 -39 -39 -39 -39 -39 -40 -40 -39 -38 -37 -38 -39 -40 -39 -38 -38 -37 -37 -37
-40 -41 -41 -41 -41 -40 -40 -40 -40 -40 -40 -40 -40 -40 -40 -40 -39 -39 -39 -39 -40 -39 -39 -39 -40 -40 -39 -39 -38 -37 -37 -38 -39 -39 -38 -38 -37 -36
-41 -41 -41 -41 -41 -41 -40 -40 -40 -40 -40 -40 -40 -41 -40 -40 -40 -40 -40 -40 -39 -39 -39 -39 -39 -39 -39 -39 -38 -38 -38 -38 -38 -38 -38 -39 -38 -37
Height
5635 5636 5638 5640 5641 5643 5644 5646 5648 5651 5653 5653 5652 5651 5651 5652 5652 5655 5657 5657 5658 5658 5659 5660 5661 5662 5663 5664 5666 5667 5670 5672 5675 5679 5681 5682 5686 5688
5618 5619 5620 5622 5623 5625 5626 5627 5629 5630 5635 5637 5636 5635 5634 5635 5635 5636 5636 5637 5638 5638 5639 5639 5640 5640 5641 5641 5643 5644 5646 5647 5651 5655 5656 5659 5662 5666
5600 5602 5603 5604 5605 5606 5607 5608 5608 5609 5614 5616 5616 5617 5618 5618 5617 5617 5618 5618 5618 5617 5618 5618 5619 5619 5619 5620 5620 5620 5621 5623 5625 5628 5628 5633 5636 5640
5582 5584 5584 5586 5587 5587 5587 5588 5588 5588 5591 5594 5595 5595 5596 5595 5597 5598 5598 5597 5598 5596 5595 5595 5596 5596 5596 5597 5598 5598 5598 5599 5600 5600 5602 5605 5608 5612
5563 5565 5566 5567 5568 5567 5568 5569 5568 5568 5569 5572 5574 5573 5573 5572 5573 5574 5574 5575 5574 5572 5572 5571 5570 5571 5572 5572 5573 5572 5573 5574 5575 5575 5576 5579 5581 5585
5544 5545 5546 5547 5548 5547 5547 5548 5547 5548 5549 5550 5551 5552 5550 5549 5548 5549 5551 5549 5549 5545 5546 5545 5544 5544 5544 5543 5544 5545 5545 5546 5546 5547 5548 5549 5552 5555
5524 5524 5526 5526 5526 5526 5526 5527 5525 5526 5526 5527 5527 5527 5527 5525 5524 5523 5524 5523 5523 5520 5520 5515 5517 5518 5515 5514 5513 5513 5513 5513 5513 5514 5515 5516 5519 5522
5502 5502 5504 5504 5504 5503 5503 5503 5503 5502 5502 5501 5502 5503 5502 5500 5497 5497 5496 5496 5499 5493 5490 5491 5484 5490 5486 5483 5481 5479 5478 5477 5478 5477 5478 5480 5483 5486
5478 5479 5480 5480 5479 5479 5477 5477 5478 5476 5474 5473 5475 5476 5475 5472 5468 5466 5466 5466 5468 5467 5462 5468 5455 5461 5452 5451 5448 5445 5443 5441 5438 5437 5437 5439 5442 5445
5454 5455 5455 5455 5453 5450 5450 5451 5451 5449 5446 5442 5446 5448 5446 5444 5440 5437 5437 5434 5439 5437 5428 5435 5424 5430 5420 5422 5417 5411 5407 5404 5402 5401 5400 5400 5400 5401
5428 5428 5428 5429 5428 5424 5421 5423 5425 5424 5417 5415 5418 5418 5416 5414 5411 5405 5407 5399 5407 5405 5399 5390 5393 5389 5389 5391 5388 5382 5376 5375 5375 5373 5372 5371 5370 5368
5399 5400 5400 5399 5399 5397 5393 5393 5397 5397 5391 5390 5388 5389 5387 5385 5380 5374 5374 5370 5371 5375 5373 5354 5356 5356 5356 5360 5358 5355 5352 5353 5347 5345 5343 5342 5340 5335
5369 5372 5373 5371 5367 5367 5365 5363 5369 5365 5362 5359 5361 5360 5357 5354 5351 5346 5345 5339 5340 5342 5348 5327 5329 5330 5326 5329 5331 5328 5327 5327 5320 5319 5315 5311 5309 5304
5340 5342 5342 5339 5335 5336 5335 5333 5332 5331 5330 5333 5333 5334 5331 5329 5325 5321 5319 5314 5313 5316 5321 5310 5305 5304 5303 5303 5304 5304 5302 5298 5291 5289 5287 5285 5282 5278
5305 5307 5306 5305 5303 5302 5305 5304 5301 5299 5300 5303 5307 5307 5305 5306 5304 5302 5299 5297 5296 5296 5295 5291 5285 5283 5277 5275 5275 5278 5271 5274 5265 5259 5256 5254 5253 5251
5272 5269 5270 5271 5272 5272 5274 5276 5274 5274 5275 5276 5280 5283 5282 5283 5282 5280 5279 5278 5276 5277 5275 5270 5263 5258 5254 5251 5247 5248 5247 5241 5240 5235 5230 5228 5229 5226
5232 5231 5236 5238 5239 5241 5243 5246 5249 5250 5251 5254 5257 5259 5260 5260 5262 5260 5258 5257 5256 5256 5255 5250 5242 5235 5231 5228 5225 5221 5219 5216 5213 5213 5209 5207 5209 5207
5195 5200 5203 5204 5206 5211 5214 5218 5222 5227 5230 5233 5236 5239 5242 5240 5239 5238 5237 5236 5235 5234 5231 5228 5222 5214 5211 5212 5202 5197 5197 5195 5197 5194 5191 5186 5187 5188
5169 5170 5175 5177 5180 5184 5189 5194 5200 5205 5208 5213 5216 5218 5218 5219 5219 5220 5219 5216 5215 5212 5209 5206 5201 5196 5190 5190 5196 5179 5176 5180 5178 5177 5173 5170 5166 5171
5150 5151 5151 5157 5161 5165 5171 5176 5182 5186 5189 5191 5194 5197 5198 5199 5200 5200 5199 5197 5194 5192 5190 5188 5184 5179 5171 5173 5173 5178 5168 5164 5163 5161 5160 5155 5152 5152
5130 5132 5133 5136 5141 5147 5152 5156 5160 5165 5168 5172 5176 5178 5179 5180 5181 5181 5181 5179 5176 5175 5175 5174 5170 5164 5161 5158 5158 5162 5163 5156 5150 5146 5145 5139 5137 5136
5116 5117 5119 5122 5126 5130 5136 5141 5145 5148 5152 5155 5158 5160 5162 5162 5163 5164 5164 5164 5163 5161 5161 5161 5159 5155 5152 5148 5147 5146 5147 5146 5142 5134 5130 5124 5118 5115
5102 5104 5106 5109 5113 5116 5120 5126 5131 5136 5139 5142 5144 5146 5147 5150 5151 5153 5153 5152 5152 5152 5151 5151 5149 5146 5143 5139 5134 5132 5131 5130 5126 5124 5120 5114 5106 5099
Wind_Speed
63 62 63 64 65 66 68 68 68 68 67 67 67 68 71 72 73 73 73 73 74 75 77 79 80 81 81 82 82 82 82 83 82 82 81 81 81 79
64 65 66 66 67 67 68 69 70 71 71 70 70 68 67 68 69 69 70 71 72 73 74 75 76 78 79 81 84 85 86 87 87 87 86 86 86 86
68 67 66 67 68 69 71 72 72 73 73 72 70 69 69 70 71 73 75 76 78 79 79 79 79 79 80 81 82 83 85 85 87 88 88 88 89 89
70 70 69 69 70 71 72 73 74 74 73 73 74 75 76 78 78 78 80 82 83 85 85 85 86 85 85 84 84 85 85 86 86 87 89 89 89 88
68 68 70 72 73 74 75 75 76 76 77 78 78 80 81 83 84 85 87 88 89 90 91 92 92 91 90 89 89 88 89 89 89 89 89 89 90 93
70 72 74 75 76 78 78 78 79 79 82 83 84 85 85 87 90 92 93 93 93 94 94 94 94 94 94 95 95 95 95 95 95 95 95 95 95 96
76 77 77 78 79 80 81 82 84 85 87 88 88 89 91 94 96 97 97 97 95 96 95 98 98 97 98 100 102 103 104 105 104 104 105 104 102 102
81 82 82 83 84 85 87 88 88 89 91 93 94 95 97 100 101 100 100 99 97 100 102 101 105 104 106 108 109 110 111 111 111 111 111 111 110 108
87 88 88 89 90 91 91 92 93 95 97 99 99 99 101 102 103 102 102 103 104 105 107 107 111 110 112 112 114 114 115 116 118 119 118 118 118 117
93 93 94 95 96 97 97 98 98 100 102 103 103 104 104 105 105 106 107 108 109 110 113 113 113 111 111 109 109 107 105 103 103 105 104 103 103 104
101 100 102 102 99 100 101 102 102 103 105 106 106 107 108 108 110 111 111 113 111 109 105 108 105 106 103 101 97 92 91 90 89 88 87 88 89 91
110 109 105 104 104 105 106 107 107 106 106 108 109 110 111 111 111 109 106 104 99 98 91 96 94 93 91 87 85 85 84 81 82 83 84 86 87 90
109 105 105 106 109 110 110 111 109 111 112 113 111 111 109 105 98 92 89 88 86 86 80 86 85 83 85 84 82 81 80 80 83 84 85 86 87 88
111 110 109 109 111 112 113 113 113 112 112 109 104 98 90 86 83 81 81 81 80 80 76 79 82 81 82 82 81 80 81 83 85 85 84 81 80 81
116 116 116 116 115 115 114 111 109 107 104 99 90 82 79 79 78 77 76 76 76 75 75 78 80 80 83 83 83 81 82 79 79 78 77 77 76 75
120 120 119 119 118 115 111 105 98 92 86 83 79 77 76 76 75 75 75 75 76 76 76 77 80 81 82 82 83 80 77 75 70 70 70 69 69 69
114 114 112 110 108 104 99 92 87 83 81 79 77 75 75 74 73 75 76 77 77 75 75 76 78 80 81 79 77 74 69 67 65 63 64 64 62 61
97 97 96 96 94 91 88 85 83 81 79 78 77 76 74 73 73 73 74 74 75 75 75 75 75 75 72 67 66 65 63 62 58 56 55 56 54 52
82 83 83 83 83 81 79 78 77 76 76 74 71 69 71 72 72 73 73 74 74 73 72 70 66 62 61 59 52 58 60 54 52 49 48 47 48 42
68 67 66 65 64 65 64 65 66 67 68 68 68 69 71 72 71 71 71 69 66 63 59 54 51 51 55 52 48 41 45 46 45 43 43 46 46 44
52 50 51 52 52 53 55 57 59 60 63 63 64 65 65 65 64 62 58 54 52 48 44 41 40 45 45 44 40 35 34 41 45 47 45 49 49 49
42 43 45 47 48 49 49 50 52 53 53 54 54 54 53 52 50 47 43 40 39 38 35 32 33 37 39 43 42 40 38 38 42 47 49 52 55 54
38 38 39 41 42 44 44 43 42 41 41 41 42 42 42 39 36 33 32 31 30 29 29 29 32 35 37 40 44 43 43 42 44 45 47 51 56 59
Wind_Direction
264 267 267 267 267 267 266 267 267 266 267 268 268 270 270 271 271 271 272 272 272 272 271 271 270 270 269 268 268 267 267 266 264 262 261 261 261 260
266 266 267 267 268 267 267 268 267 267 266 266 267 268 269 270 272 273 275 275 276 276 276 275 274 273 272 271 270 269 268 267 267 265 263 261 260 259
265 266 267 267 268 269 269 269 270 269 268 267 265 267 269 271 273 275 276 277 278 279 279 279 278 277 275 274 272 271 271 270 269 267 266 264 262 260
264 265 266 267 268 269 270 271 271 270 269 268 268 270 272 274 275 278 279 279 279 280 279 279 278 278 277 275 275 274 273 272 270 269 267 266 264 261
264 265 268 269 270 270 271 271 272 272 273 272 272 274 275 277 279 279 280 280 281 280 280 279 278 278 277 276 275 274 273 272 271 270 269 268 266 263
267 268 270 271 271 272 271 271 271 272 273 274 275 275 276 279 280 280 282 282 281 281 280 280 279 278 277 276 276 276 275 274 273 272 270 268 267 265
268 269 270 270 271 271 272 273 273 274 276 277 277 278 278 279 280 281 281 280 280 279 279 279 278 279 279 279 278 278 277 276 275 273 272 270 268 266
268 269 270 271 272 273 273 274 274 276 276 277 277 278 278 279 280 280 280 279 279 279 279 280 281 281 281 281 280 280 279 278 276 275 273 271 269 267
269 270 271 271 272 273 275 275 276 277 277 277 278 279 279 280 280 279 279 278 278 279 280 280 281 281 281 280 280 280 279 278 277 276 275 273 271 269
269 270 272 272 273 274 275 276 277 279 279 279 279 279 280 280 279 279 279 279 279 280 281 281 281 281 280 280 279 278 276 275 273 273 272 271 270 269
271 272 273 272 272 274 275 276 277 278 279 279 280 281 281 280 281 281 282 282 283 283 283 283 281 280 278 276 274 273 272 272 273 273 272 272 271 269
272 273 272 271 272 274 275 275 276 276 278 279 281 280 280 281 282 283 283 283 282 281 279 277 276 275 274 273 273 272 272 274 275 275 275 274 273 270
271 271 271 272 272 273 274 275 276 277 279 279 280 281 282 283 281 280 279 277 277 277 275 275 276 276 276 276 276 277 277 277 277 276 275 274 272 270
270 271 272 272 272 273 275 277 278 279 279 280 280 280 279 278 275 274 274 275 275 275 274 275 276 277 278 278 279 279 279 278 278 277 276 274 271 270
271 273 273 274 274 275 276 276 276 276 276 276 277 274 271 270 271 271 270 270 272 275 276 276 278 280 281 281 281 280 280 279 278 277 275 274 271 267
271 271 271 270 270 271 271 272 272 273 272 271 271 271 270 269 269 270 270 271 273 274 277 280 281 281 281 282 283 282 280 280 277 275 273 272 271 271
268 267 267 267 267 267 267 267 266 265 265 266 266 267 268 269 270 271 272 273 275 277 277 279 280 282 283 282 282 282 281 278 277 276 274 274 273 272
266 266 266 265 265 264 264 263 262 262 263 264 264 266 268 269 270 271 273 275 277 278 279 280 280 278 280 281 283 281 279 279 279 279 278 277 273 270
264 264 263 263 263 262 261 261 262 262 263 265 266 267 267 268 269 271 274 276 277 279 279 279 280 280 278 276 273 276 281 281 281 281 280 278 277 274
266 266 267 265 263 262 262 263 263 263 263 263 263 263 265 268 271 273 275 276 277 277 278 278 278 277 276 278 276 274 278 282 282 281 280 279 279 279
265 262 261 260 258 257 257 259 259 259 260 262 263 265 267 269 271 272 274 276 276 275 275 275 275 275 277 278 280 280 277 281 285 287 285 283 282 279
265 262 261 261 260 259 257 256 257 259 261 264 265 266 268 269 270 273 274 272 272 274 275 273 270 271 275 280 284 285 287 286 284 285 287 287 285 281
260 259 258 256 256 257 257 257 257 258 259 259 260 259 261 266 266 267 268 270 270 271 273 271 274 278 282 288 291 293 290 289 287 283 281 282 282 283